Flag for U.S.A. Weather past 2 weeks in Gainesville, Florida, U.S.A.

Now
86 °F

Partly sunny.


Feels Like: 92 °F
Forecast: 70 / 89 °F
Wind: 3 mph from North

Location: Gainesville Regional Airport

Current Time: Jul 7, 2015 at 12:06:27 PM

Latest Report: Jul 7, 2015 at 10:53 AM


Visibility: 10 mi

Pressure: 30.17 "Hg

Humidity: 63%

Dew point: 72 °F

Location of GainesvilleLocation

Historic Weather in Gainesville — Graph

°F

Gainesville temperature yesterday

Maximum temperature yesterday: 89 °F (at 1:53 PM)
Minimum temperature yesterday: 66 °F (at 5:00 AM)
Average temperature yesterday: 76 °F

Past Weeks' High & Low Weather Summary

 TemperatureHumidityPressure
High98 °F (Jun 22, 2:53 PM)97% (Jun 23, 2:53 AM)30.19 "Hg (Jun 23, 2:53 AM)
Low66 °F (Jul 6, 5:00 AM)35% (Jun 22, 2:53 PM)29.96 "Hg (Jun 28, 3:53 AM)
Average78 °F80%30.08 "Hg
* Reported Jun 22 10:53 AM — Jul 7 10:53 AM, Gainesville, Weather by CustomWeather, © 2015

Note: Actual official high and low records may vary slightly from our data, if they occured in-between our weather recording intervals... More about our weather records

Advertising

Gainesville weather history for previous 24 hours

 ConditionsComfort  
Time TempWeatherWind HumidityBarometerVisibility
10:53 AM
Tue, Jul 7
86 °FPartly sunny.3 mph63%30.17 "Hg10 mi
9:53 AM83 °FSunny.3 mph68%30.18 "Hg10 mi
8:53 AM79 °FSunny.No wind77%30.18 "Hg10 mi
7:53 AM75 °FSunny.No wind85%30.16 "Hg10 mi
6:53 AM70 °FClear.No wind93%30.15 "Hg10 mi
5:53 AM70 °FClear.No wind93%30.14 "Hg10 mi
4:53 AM70 °FClear.No wind93%30.13 "Hg10 mi
3:53 AM71 °FClear.No wind93%30.11 "Hg10 mi
2:53 AM71 °FClear.No wind93%30.10 "Hg10 mi
1:53 AM73 °FClear.No wind90%30.10 "Hg10 mi
12:53 AM73 °FClear.No wind90%30.11 "Hg10 mi
11:53 PM
Mon, Jul 6
73 °FClear.5 mph94%30.12 "Hg10 mi
10:53 PM75 °FClear.No wind88%30.13 "Hg10 mi
9:53 PM75 °FClear.6 mph88%30.13 "Hg10 mi
8:53 PM74 °FScattered clouds.5 mph88%30.12 "Hg10 mi
7:53 PM75 °FSunny.3 mph82%30.12 "Hg10 mi
6:53 PM75 °FScattered clouds.No wind82%30.13 "Hg10 mi
5:53 PM78 °FThunderstorms. Cloudy.14 mph74%30.13 "Hg10 mi
4:53 PM84 °FSunny.10 mph65%30.11 "Hg10 mi
3:53 PM89 °FPartly sunny.7 mph46%30.11 "Hg10 mi
2:53 PM89 °FPassing clouds.6 mph50%30.13 "Hg10 mi
1:53 PM89 °FScattered clouds.5 mph52%30.15 "Hg10 mi
12:53 PM88 °FScattered clouds.3 mph55%30.17 "Hg10 mi
Weather by CustomWeather, © 2015

See weather overviewHow to use our weather pages